SCOUT A DEB, 2580

Orbit data source: Space-Track

SCOUT A DEB, 2580 is space debris in LEO originally from a launch on Thu, 18 Aug 1966 UTC launched from the Air Force Western Test Range (AFWTR). Debris objects in space refer to the collection of defunct objects orbiting the Earth. Examples of debris include non-operational satellites, rocket bodies, and fragments generated from explosions, collisions, or faulty payload assembly.

Loading next visibility...
Identifier
2580, 1966-076C
Orbit
LEO
Country
Flag of USUS
Related business
Manufacturer
Unknown
Mission
Spacecraft
Bus & Motor
Unknown
Mass
Unknown
Launch date (UTC)
1966-08-18 (60 years ago)
Launch vehicle
Unknown
Launch site
Air Force Western Test Range (AFWTR)
Object type
Payload
Rocket body
Debris
Shape & HBR
Unknown shape, 0.1 m
Radar Cross Section
Medium (>0.1 m² and <1 m²)

Expand to show TLE details & history
Last TLE update: 2 days ago

TLE from 2 days ago
0 SCOUT A DEB
1 02580U 66076C   26207.19524919  .00000235  00000-0  21220-3 0  9997
2 02580  89.1360 283.0131 0093632 205.2220 183.2681 13.78756107997287
Epoch: 2026-07-26T04:41Z
TLE epoch observation values (Epoch: 2026-07-26T04:41:09.530Z)
Latitude
28.46717°
Longitude
-90.70717°
Altitude
1,040.593 km
Speed
7.3 km/s
True Right ascension
18h 53m 55s
True Declination
28° 19' 44"
Sunlit
Object was in full shadow at epoch
Visualization orbit readout
Latitude
Unknown
Longitude
Unknown
Altitude
Unknown
Speed
Unknown
Apparent Right ascension
Unknown
Apparent Declination
Unknown
Sunlit
N/A
Visualization observer readout
Local Sidereal Time
06:06:50
Azimuth
Unknown
Elevation
Unknown
Doppler factor
Unknown
Orbital elements
Apogee altitude
1,034.07 km
Perigee altitude
896.553 km
Semi-major axis
7,343.449 km
Eccentricity
0.00936
Inclination
89.136°
RAAN
283.0131°
Arg. of periapsis
205.222°
True anomaly
183.20764°
Mean anomaly
183.2681°
Eccentric anomaly
183.2378°
Mean motion
3.449 °/min
Orbital period
104.38 mins
BSTAR
0.0002122
Loading maneuver chart data...
Computing Atmospheric mass density...
Loading historical data...
Loading historical data...
Loading historical data...
Loading historical data...
Loading historical data...
Loading historical data...
Loading historical data...

Documentation

Showing up to 5 results
|